18-06-2022, 00:00:06,    272,    0.0,   16.5,   0.00,   0.00, 1015.9,   76.5, -999.0
18-06-2022, 00:00:17,    271,    0.0,   16.5,   0.00,   0.00, 1015.9,   76.4, -999.0
18-06-2022, 00:00:26,    271,    0.0,   16.4,   0.00,   0.00, 1015.9,   76.5, -999.0
18-06-2022, 00:00:36,    271,    0.0,   16.5,   0.00,   0.00, 1015.9,   76.5, -999.0
18-06-2022, 00:00:47,    271,    0.0,   16.4,   0.00,   0.00, 1015.9,   76.5, -999.0
18-06-2022, 00:00:56,    271,    0.0,   16.5,   0.00,   0.00, 1015.9,   76.6, -999.0
18-06-2022, 00:01:06,    271,    0.0,   16.5,   0.00,   0.00, 1015.9,   76.7, -999.0
18-06-2022, 00:01:16,    272,    0.0,   16.5,   0.00,   0.00, 1015.9,   76.7, -999.0
18-06-2022, 00:01:26,    272,    0.0,   16.5,   0.00,   0.00, 1015.9,   76.8, -999.0
18-06-2022, 00:01:36,    271,    0.0,   16.5,   0.00,   0.00, 1015.9,   76.8, -999.0
18-06-2022, 00:01:46,    271,    0.0,   16.5,   0.00,   0.00, 1016.0,   76.7, -999.0
18-06-2022, 00:01:56,    271,    0.0,   16.6,   0.00,   0.00, 1015.9,   76.7, -999.0
18-06-2022, 00:02:06,    272,    0.0,   16.6,   0.00,   0.00, 1015.9,   76.8, -999.0
18-06-2022, 00:02:16,    272,    0.0,   16.6,   0.00,   0.00, 1015.9,   76.7, -999.0
18-06-2022, 00:02:26,    271,    0.0,   16.6,   0.00,   0.00, 1015.9,   76.8, -999.0
18-06-2022, 00:02:36,    272,    0.0,   16.6,   0.00,   0.00, 1015.9,   76.8, -999.0
18-06-2022, 00:02:46,    272,    0.0,   16.6,   0.00,   0.00, 1015.9,   76.8, -999.0
18-06-2022, 00:02:56,    272,    0.0,   16.6,   0.00,   0.00, 1015.9,   76.8, -999.0
18-06-2022, 00:03:05,    272,    0.0,   16.6,   0.00,   0.00, 1015.9,   76.7, -999.0
18-06-2022, 00:03:15,    272,    0.0,   16.6,   0.00,   0.00, 1015.9,   76.7, -999.0
18-06-2022, 00:03:26,    272,    0.0,   16.6,   0.00,   0.00, 1015.9,   76.7, -999.0
18-06-2022, 00:03:35,    272,    0.0,   16.6,   0.00,   0.00, 1015.9,   76.7, -999.0
18-06-2022, 00:03:45,    271,    0.0,   16.7,   0.00,   0.00, 1015.9,   76.7, -999.0
18-06-2022, 00:03:55,    271,    0.0,   16.7,   0.00,   0.00, 1015.9,   76.7, -999.0
18-06-2022, 00:04:05,    272,    0.0,   16.7,   0.00,   0.00, 1015.9,   76.8, -999.0
18-06-2022, 00:04:15,    272,    0.0,   16.7,   0.00,   0.00, 1015.9,   76.8, -999.0
18-06-2022, 00:04:25,    272,    0.0,   16.7,   0.00,   0.00, 1015.9,   76.6, -999.0
18-06-2022, 00:04:35,    272,    0.0,   16.7,   0.00,   0.00, 1015.9,   76.7, -999.0
18-06-2022, 00:04:45,    272,    0.0,   16.7,   0.00,   0.00, 1015.9,   76.5, -999.0
18-06-2022, 00:04:55,    272,    0.0,   16.7,   0.00,   0.00, 1015.9,   76.6, -999.0
18-06-2022, 00:05:05,    272,    0.0,   16.6,   0.00,   0.00, 1015.9,   76.5, -999.0
18-06-2022, 00:05:15,    272,    0.0,   16.7,   0.00,   0.00, 1015.9,   76.5, -999.0
18-06-2022, 00:05:25,    272,    0.0,   16.6,   0.00,   0.00, 1015.9,   76.5, -999.0
18-06-2022, 00:05:35,    271,    0.0,   16.6,   0.00,   0.00, 1015.9,   76.4, -999.0
18-06-2022, 00:05:44,    272,    0.0,   16.6,   0.00,   0.00, 1015.9,   76.4, -999.0
18-06-2022, 00:05:55,    272,    0.0,   16.6,   0.00,   0.00, 1015.9,   76.4, -999.0
18-06-2022, 00:06:04,    272,    0.0,   16.6,   0.00,   0.00, 1015.9,   76.5, -999.0
18-06-2022, 00:06:14,    272,    0.0,   16.6,   0.00,   0.00, 1015.9,   76.4, -999.0
18-06-2022, 00:06:24,    272,    0.0,   16.6,   0.00,   0.00, 1016.0,   76.4, -999.0
18-06-2022, 00:06:34,    272,    0.0,   16.6,   0.00,   0.00, 1015.9,   76.4, -999.0
18-06-2022, 00:06:44,    272,    0.0,   16.5,   0.00,   0.00, 1015.9,   76.4, -999.0
18-06-2022, 00:06:54,    272,    0.0,   16.7,   0.00,   0.00, 1015.9,   76.5, -999.0
18-06-2022, 00:07:04,    271,    0.0,   16.6,   0.00,   0.00, 1015.9,   76.5, -999.0
18-06-2022, 00:07:14,    272,    0.0,   16.6,   0.00,   0.00, 1015.9,   76.4, -999.0
18-06-2022, 00:07:24,    272,    0.0,   16.6,   0.00,   0.00, 1015.9,   76.5, -999.0
18-06-2022, 00:07:34,    271,    0.0,   16.6,   0.00,   0.00, 1015.9,   76.5, -999.0
18-06-2022, 00:07:44,    272,    0.0,   16.6,   0.00,   0.00, 1015.9,   76.5, -999.0
18-06-2022, 00:07:54,    271,    0.0,   16.6,   0.00,   0.00, 1015.9,   76.5, -999.0
18-06-2022, 00:08:04,    272,    0.0,   16.5,   0.00,   0.00, 1015.9,   76.5, -999.0
18-06-2022, 00:08:13,    271,    0.0,   16.6,   0.00,   0.00, 1015.9,   76.5, -999.0
18-06-2022, 00:08:24,    271,    0.0,   16.6,   0.00,   0.00, 1015.9,   76.5, -999.0
18-06-2022, 00:08:34,    272,    0.0,   16.6,   0.00,   0.00, 1015.9,   76.5, -999.0
18-06-2022, 00:08:43,    272,    0.0,   16.6,   0.00,   0.00, 1015.9,   76.6, -999.0
18-06-2022, 00:08:54,    272,    0.0,   16.5,   0.00,   0.00, 1015.9,   76.5, -999.0
18-06-2022, 00:09:03,    271,    0.0,   16.6,   0.00,   0.00, 1016.0,   76.5, -999.0
18-06-2022, 00:09:13,    272,    0.0,   16.6,   0.00,   0.00, 1015.9,   76.5, -999.0
18-06-2022, 00:09:23,    271,    0.0,   16.5,   0.00,   0.00, 1015.9,   76.6, -999.0
18-06-2022, 00:09:33,    272,    0.0,   16.5,   0.00,   0.00, 1015.9,   76.6, -999.0
18-06-2022, 00:09:43,    272,    0.0,   16.6,   0.00,   0.00, 1015.9,   76.6, -999.0
18-06-2022, 00:09:53,    272,    0.0,   16.6,   0.00,   0.00, 1015.9,   76.6, -999.0
18-06-2022, 00:10:03,    272,    0.0,   16.7,   0.00,   0.00, 1015.9,   76.6, -999.0
18-06-2022, 00:10:13,    272,    0.0,   16.6,   0.00,   0.00, 1015.9,   76.6, -999.0
18-06-2022, 00:10:23,    272,    0.0,   16.6,   0.00,   0.00, 1015.9,   76.6, -999.0
18-06-2022, 00:10:33,    271,    0.0,   16.6,   0.00,   0.00, 1015.9,   76.6, -999.0
18-06-2022, 00:10:43,    271,    0.0,   16.6,   0.00,   0.00, 1015.9,   76.6, -999.0
18-06-2022, 00:10:53,    272,    0.0,   16.6,   0.00,   0.00, 1015.9,   76.5, -999.0
18-06-2022, 00:11:03,    271,    0.0,   16.6,   0.00,   0.00, 1015.9,   76.6, -999.0
18-06-2022, 00:11:12,    272,    0.0,   16.6,   0.00,   0.00, 1015.9,   76.4, -999.0
18-06-2022, 00:11:22,    272,    0.0,   16.6,   0.00,   0.00, 1015.9,   76.5, -999.0
18-06-2022, 00:11:33,    271,    0.0,   16.6,   0.00,   0.00, 1015.9,   76.6, -999.0
18-06-2022, 00:11:42,    272,    0.0,   16.6,   0.00,   0.00, 1015.9,   76.5, -999.0
18-06-2022, 00:11:52,    272,    0.0,   16.6,   0.00,   0.00, 1015.9,   76.5, -999.0
18-06-2022, 00:12:02,    271,    0.0,   16.5,   0.00,   0.00, 1015.9,   76.5, -999.0
18-06-2022, 00:12:12,    272,    0.0,   16.6,   0.00,   0.00, 1015.9,   76.4, -999.0
18-06-2022, 00:12:22,    272,    0.0,   16.6,   0.00,   0.00, 1015.9,   76.4, -999.0
18-06-2022, 00:12:32,    272,    0.0,   16.5,   0.00,   0.00, 1015.9,   76.4, -999.0
18-06-2022, 00:12:42,    272,    0.0,   16.6,   0.00,   0.00, 1015.9,   76.4, -999.0
18-06-2022, 00:12:52,    272,    0.0,   16.6,   0.00,   0.00, 1015.9,   76.4, -999.0
18-06-2022, 00:13:02,    271,    0.0,   16.6,   0.00,   0.00, 1015.9,   76.5, -999.0
18-06-2022, 00:13:12,    272,    0.0,   16.6,   0.00,   0.00, 1015.9,   76.4, -999.0
18-06-2022, 00:13:22,    271,    0.0,   16.6,   0.00,   0.00, 1015.9,   76.5, -999.0
18-06-2022, 00:13:32,    271,    0.0,   16.5,   0.00,   0.00, 1015.9,   76.5, -999.0
18-06-2022, 00:13:42,    271,    0.0,   16.6,   0.00,   0.00, 1015.9,   76.4, -999.0
18-06-2022, 00:13:51,    272,    0.0,   16.6,   0.00,   0.00, 1015.9,   76.4, -999.0
18-06-2022, 00:14:02,    272,    0.0,   16.5,   0.00,   0.00, 1015.9,   76.4, -999.0
18-06-2022, 00:14:11,    271,    0.0,   16.6,   0.00,   0.00, 1015.9,   76.4, -999.0
18-06-2022, 00:14:21,    272,    0.0,   16.4,   0.00,   0.00, 1015.9,   76.4, -999.0
18-06-2022, 00:14:32,    272,    0.0,   16.5,   0.00,   0.00, 1015.9,   76.4, -999.0
18-06-2022, 00:14:41,    272,    0.0,   16.5,   0.00,   0.00, 1015.9,   76.4, -999.0
18-06-2022, 00:14:51,    271,    0.0,   16.5,   0.00,   0.00, 1015.9,   76.3, -999.0
18-06-2022, 00:15:01,    271,    0.0,   16.5,   0.00,   0.00, 1015.8,   76.4, -999.0
18-06-2022, 00:15:11,    271,    0.0,   16.5,   0.00,   0.00, 1015.9,   76.4, -999.0
18-06-2022, 00:15:21,    270,    0.0,   16.5,   0.00,   0.00, 1015.9,   76.4, -999.0
18-06-2022, 00:15:31,    271,    0.0,   16.6,   0.00,   0.00, 1015.9,   76.3, -999.0
18-06-2022, 00:15:41,    270,    0.0,   16.5,   0.00,   0.00, 1015.9,   76.3, -999.0
18-06-2022, 00:15:51,    271,    0.0,   16.5,   0.00,   0.00, 1015.9,   76.4, -999.0
18-06-2022, 00:16:01,    271,    0.0,   16.5,   0.00,   0.00, 1015.9,   76.3, -999.0
18-06-2022, 00:16:11,    271,    0.0,   16.6,   0.00,   0.00, 1015.9,   76.3, -999.0
18-06-2022, 00:16:20,    271,    0.0,   16.6,   0.00,   0.00, 1015.9,   76.3, -999.0
18-06-2022, 00:16:31,    271,    0.0,   16.5,   0.00,   0.00, 1015.9,   76.1, -999.0
18-06-2022, 00:16:41,    270,    0.0,   16.5,   0.00,   0.00, 1015.9,   76.0, -999.0
18-06-2022, 00:16:50,    271,    0.0,   16.5,   0.00,   0.00, 1015.9,   75.9, -999.0
18-06-2022, 00:17:01,    271,    0.0,   16.6,   0.00,   0.00, 1015.9,   76.1, -999.0
18-06-2022, 00:17:11,    271,    0.0,   16.5,   0.00,   0.00, 1015.9,   76.1, -999.0
18-06-2022, 00:17:20,    270,    0.0,   16.5,   0.00,   0.00, 1015.9,   76.0, -999.0
18-06-2022, 00:17:30,    270,    0.0,   16.5,   0.00,   0.00, 1015.9,   76.0, -999.0
18-06-2022, 00:17:40,    271,    0.0,   16.5,   0.00,   0.00, 1015.9,   75.9, -999.0
18-06-2022, 00:17:50,    271,    0.0,   16.6,   0.00,   0.00, 1015.9,   75.9, -999.0
18-06-2022, 00:18:00,    271,    0.0,   16.6,   0.00,   0.00, 1015.9,   76.0, -999.0
18-06-2022, 00:18:10,    271,    0.0,   16.6,   0.00,   0.00, 1015.9,   75.9, -999.0
18-06-2022, 00:18:20,    270,    0.0,   16.5,   0.00,   0.00, 1015.9,   75.9, -999.0
18-06-2022, 00:18:30,    271,    0.0,   16.5,   0.00,   0.00, 1015.9,   75.7, -999.0
18-06-2022, 00:18:40,    270,    0.0,   16.4,   0.00,   0.00, 1015.9,   75.9, -999.0
18-06-2022, 00:18:50,    271,    0.0,   16.5,   0.00,   0.00, 1015.9,   75.8, -999.0
18-06-2022, 00:19:00,    271,    0.0,   16.4,   0.00,   0.00, 1015.9,   75.8, -999.0
18-06-2022, 00:19:10,    270,    0.0,   16.5,   0.00,   0.00, 1015.9,   75.7, -999.0
18-06-2022, 00:19:20,    270,    0.0,   16.5,   0.00,   0.00, 1015.9,   75.8, -999.0
18-06-2022, 00:19:30,    271,    0.0,   16.5,   0.00,   0.00, 1015.9,   75.8, -999.0
18-06-2022, 00:19:40,    272,    0.0,   16.4,   0.00,   0.00, 1015.9,   75.9, -999.0
18-06-2022, 00:19:49,    270,    0.0,   16.4,   0.00,   0.00, 1015.9,   75.9, -999.0
18-06-2022, 00:19:59,    270,    0.0,   16.5,   0.00,   0.00, 1015.9,   75.9, -999.0
18-06-2022, 00:20:10,    270,    0.0,   16.4,   0.00,   0.00, 1016.0,   76.0, -999.0
18-06-2022, 00:20:19,    270,    0.0,   16.5,   0.00,   0.00, 1016.0,   76.1, -999.0
18-06-2022, 00:20:29,    270,    0.0,   16.5,   0.00,   0.00, 1015.9,   76.1, -999.0
18-06-2022, 00:20:39,    270,    0.0,   16.5,   0.00,   0.00, 1015.9,   76.0, -999.0
18-06-2022, 00:20:49,    270,    0.0,   16.5,   0.00,   0.00, 1015.9,   76.1, -999.0
18-06-2022, 00:20:59,    270,    0.0,   16.5,   0.00,   0.00, 1015.9,   76.1, -999.0
18-06-2022, 00:21:09,    270,    0.0,   16.5,   0.00,   0.00, 1015.9,   76.0, -999.0
18-06-2022, 00:21:19,    270,    0.0,   16.5,   0.00,   0.00, 1015.9,   76.0, -999.0
18-06-2022, 00:21:29,    270,    0.0,   16.4,   0.00,   0.00, 1015.9,   76.1, -999.0
18-06-2022, 00:21:39,    270,    0.0,   16.5,   0.00,   0.00, 1015.9,   76.1, -999.0
18-06-2022, 00:21:49,    270,    0.0,   16.5,   0.00,   0.00, 1015.9,   76.1, -999.0
18-06-2022, 00:21:59,    270,    0.0,   16.4,   0.00,   0.00, 1015.9,   76.1, -999.0
18-06-2022, 00:22:09,    270,    0.0,   16.5,   0.00,   0.00, 1015.9,   76.1, -999.0
18-06-2022, 00:22:19,    270,    0.0,   16.4,   0.00,   0.00, 1015.9,   76.2, -999.0
18-06-2022, 00:22:28,    270,    0.0,   16.4,   0.00,   0.00, 1015.9,   76.3, -999.0
18-06-2022, 00:22:39,    274,    0.0,   16.4,   0.00,   0.00, 1015.9,   76.2, -999.0
18-06-2022, 00:22:48,    270,    0.0,   16.4,   0.00,   0.00, 1015.9,   76.2, -999.0
18-06-2022, 00:22:58,    270,    0.0,   16.4,   0.00,   0.00, 1015.9,   76.2, -999.0
18-06-2022, 00:23:08,    270,    0.0,   16.4,   0.00,   0.00, 1015.9,   76.2, -999.0
18-06-2022, 00:23:18,    270,    0.0,   16.4,   0.00,   0.00, 1015.9,   76.2, -999.0
18-06-2022, 00:23:28,    270,    0.0,   16.4,   0.00,   0.00, 1015.9,   76.2, -999.0
18-06-2022, 00:23:38,    270,    0.0,   16.4,   0.00,   0.00, 1015.9,   76.3, -999.0
18-06-2022, 00:23:48,    270,    0.0,   16.4,   0.00,   0.00, 1015.9,   76.3, -999.0
18-06-2022, 00:23:58,    270,    0.0,   16.4,   0.00,   0.00, 1015.9,   76.2, -999.0
18-06-2022, 00:24:08,    270,    0.0,   16.4,   0.00,   0.00, 1015.9,   76.3, -999.0
18-06-2022, 00:24:18,    270,    0.0,   16.4,   0.00,   0.00, 1015.9,   76.4, -999.0
18-06-2022, 00:24:28,    270,    0.0,   16.5,   0.00,   0.00, 1015.9,   76.6, -999.0
18-06-2022, 00:24:38,    270,    0.0,   16.5,   0.00,   0.00, 1015.9,   76.6, -999.0
18-06-2022, 00:24:48,    270,    0.0,   16.5,   0.00,   0.00, 1015.9,   76.7, -999.0
18-06-2022, 00:24:57,    270,    0.0,   16.4,   0.00,   0.00, 1015.9,   76.6, -999.0
18-06-2022, 00:25:08,    270,    0.0,   16.5,   0.00,   0.00, 1015.9,   76.6, -999.0
18-06-2022, 00:25:18,    270,    0.0,   16.5,   0.00,   0.00, 1015.9,   76.7, -999.0
18-06-2022, 00:25:27,    270,    0.0,   16.5,   0.00,   0.00, 1015.9,   76.8, -999.0
18-06-2022, 00:25:37,    270,    0.0,   16.5,   0.00,   0.00, 1015.9,   76.7, -999.0
18-06-2022, 00:25:47,    270,    0.0,   16.6,   0.00,   0.00, 1015.9,   76.9, -999.0
18-06-2022, 00:25:57,    270,    0.0,   16.6,   0.00,   0.00, 1015.9,   76.7, -999.0
18-06-2022, 00:26:07,    270,    0.0,   16.6,   0.00,   0.00, 1015.9,   76.7, -999.0
18-06-2022, 00:26:17,    271,    0.0,   16.6,   0.00,   0.00, 1015.9,   76.7, -999.0
18-06-2022, 00:26:27,    270,    0.0,   16.5,   0.00,   0.00, 1015.9,   76.6, -999.0
18-06-2022, 00:26:37,    270,    0.0,   16.5,   0.00,   0.00, 1015.9,   76.6, -999.0
18-06-2022, 00:26:47,    270,    0.0,   16.5,   0.00,   0.00, 1015.9,   76.5, -999.0
18-06-2022, 00:26:57,    270,    0.0,   16.5,   0.00,   0.00, 1015.9,   76.6, -999.0
18-06-2022, 00:27:07,    270,    0.0,   16.5,   0.00,   0.00, 1015.9,   76.5, -999.0
18-06-2022, 00:27:17,    270,    0.0,   16.5,   0.00,   0.00, 1015.9,   76.5, -999.0
18-06-2022, 00:27:27,    270,    0.0,   16.5,   0.00,   0.00, 1015.9,   76.6, -999.0
18-06-2022, 00:27:36,    270,    0.0,   16.5,   0.00,   0.00, 1015.9,   76.5, -999.0
18-06-2022, 00:27:47,    270,    0.0,   16.5,   0.00,   0.00, 1015.9,   76.5, -999.0
18-06-2022, 00:27:57,    270,    0.0,   16.5,   0.00,   0.00, 1015.9,   76.4, -999.0
18-06-2022, 00:28:06,    270,    0.0,   16.4,   0.00,   0.00, 1015.9,   76.5, -999.0
18-06-2022, 00:28:17,    270,    0.0,   16.5,   0.00,   0.00, 1015.9,   76.5, -999.0
18-06-2022, 00:28:26,    270,    0.0,   16.4,   0.00,   0.00, 1015.9,   76.5, -999.0
18-06-2022, 00:28:36,    272,    0.0,   16.5,   0.00,   0.00, 1015.9,   76.6, -999.0
18-06-2022, 00:28:46,    270,    0.0,   16.4,   0.00,   0.00, 1016.0,   76.7, -999.0
18-06-2022, 00:28:56,    270,    0.0,   16.5,   0.00,   0.00, 1016.0,   76.8, -999.0
18-06-2022, 00:29:06,    270,    0.0,   16.5,   0.00,   0.00, 1016.0,   76.8, -999.0
18-06-2022, 00:29:16,    270,    0.0,   16.4,   0.00,   0.00, 1016.0,   76.8, -999.0
18-06-2022, 00:29:26,    270,    0.0,   16.5,   0.00,   0.00, 1016.0,   76.8, -999.0
18-06-2022, 00:29:37,    270,    0.0,   16.4,   0.00,   0.00, 1016.0,   76.8, -999.0
18-06-2022, 00:29:46,    270,    0.0,   16.5,   0.00,   0.00, 1016.0,   76.6, -999.0
18-06-2022, 00:29:56,    270,    0.0,   16.5,   0.00,   0.00, 1015.9,   76.7, -999.0
18-06-2022, 00:30:06,    270,    0.0,   16.5,   0.00,   0.00, 1016.0,   76.9, -999.0
18-06-2022, 00:30:16,    270,    0.0,   16.5,   0.00,   0.00, 1016.0,   76.8, -999.0
18-06-2022, 00:30:26,    270,    0.0,   16.5,   0.00,   0.00, 1016.0,   76.8, -999.0
18-06-2022, 00:30:35,    270,    0.0,   16.5,   0.00,   0.00, 1016.0,   76.8, -999.0
18-06-2022, 00:30:46,    270,    0.0,   16.4,   0.00,   0.00, 1016.0,   76.7, -999.0
18-06-2022, 00:30:56,    270,    0.0,   16.4,   0.00,   0.00, 1016.0,   76.8, -999.0
18-06-2022, 00:31:05,    270,    0.0,   16.4,   0.00,   0.00, 1016.0,   76.9, -999.0
18-06-2022, 00:31:15,    270,    0.0,   16.4,   0.00,   0.00, 1016.0,   76.8, -999.0
18-06-2022, 00:31:25,    270,    0.0,   16.4,   0.00,   0.00, 1016.0,   76.9, -999.0
18-06-2022, 00:31:35,    269,    0.0,   16.4,   0.00,   0.00, 1016.0,   76.9, -999.0
18-06-2022, 00:31:45,    269,    0.0,   16.4,   0.00,   0.00, 1016.0,   76.8, -999.0
18-06-2022, 00:31:55,    269,    0.0,   16.3,   0.00,   0.00, 1016.0,   76.8, -999.0
18-06-2022, 00:32:05,    269,    0.0,   16.4,   0.00,   0.00, 1016.0,   76.9, -999.0
18-06-2022, 00:32:15,    269,    0.0,   16.3,   0.00,   0.00, 1016.0,   76.8, -999.0
18-06-2022, 00:32:25,    269,    0.0,   16.4,   0.00,   0.00, 1016.0,   76.9, -999.0
18-06-2022, 00:32:35,    269,    0.0,   16.4,   0.00,   0.00, 1016.0,   77.0, -999.0
18-06-2022, 00:32:45,    269,    0.0,   16.3,   0.00,   0.00, 1016.0,   76.9, -999.0
18-06-2022, 00:32:55,    269,    0.0,   16.3,   0.00,   0.00, 1016.0,   77.0, -999.0
18-06-2022, 00:33:04,    269,    0.0,   16.4,   0.00,   0.00, 1016.0,   77.0, -999.0
18-06-2022, 00:33:15,    270,    0.0,   16.4,   0.00,   0.00, 1016.0,   76.9, -999.0
18-06-2022, 00:33:25,    269,    0.0,   16.4,   0.00,   0.00, 1016.0,   76.9, -999.0
18-06-2022, 00:33:34,    269,    0.0,   16.4,   0.00,   0.00, 1016.0,   76.9, -999.0
18-06-2022, 00:33:44,    269,    0.0,   16.4,   0.00,   0.00, 1016.0,   76.9, -999.0
18-06-2022, 00:33:55,    269,    0.0,   16.2,   0.00,   0.00, 1016.0,   76.9, -999.0
18-06-2022, 00:34:04,    270,    0.0,   16.3,   0.00,   0.00, 1016.0,   77.0, -999.0
18-06-2022, 00:34:14,    269,    0.0,   16.3,   0.00,   0.00, 1016.0,   77.1, -999.0
18-06-2022, 00:34:24,    269,    0.0,   16.3,   0.00,   0.00, 1016.0,   77.0, -999.0
18-06-2022, 00:34:34,    269,    0.0,   16.4,   0.00,   0.00, 1016.0,   77.0, -999.0
18-06-2022, 00:34:44,    269,    0.0,   16.3,   0.00,   0.00, 1016.0,   77.1, -999.0
18-06-2022, 00:34:54,    269,    0.0,   16.3,   0.00,   0.00, 1016.0,   77.2, -999.0
18-06-2022, 00:35:04,    269,    0.0,   16.3,   0.00,   0.00, 1016.0,   77.2, -999.0
18-06-2022, 00:35:14,    269,    0.0,   16.2,   0.00,   0.00, 1016.0,   77.2, -999.0
18-06-2022, 00:35:24,    269,    0.0,   16.3,   0.00,   0.00, 1016.0,   77.2, -999.0
18-06-2022, 00:35:34,    269,    0.0,   16.3,   0.00,   0.00, 1016.0,   77.4, -999.0
18-06-2022, 00:35:44,    270,    0.0,   16.3,   0.00,   0.00, 1015.9,   77.3, -999.0
18-06-2022, 00:35:54,    269,    0.0,   16.3,   0.00,   0.00, 1016.0,   77.3, -999.0
18-06-2022, 00:36:04,    269,    0.0,   16.3,   0.00,   0.00, 1016.0,   77.2, -999.0
18-06-2022, 00:36:13,    269,    0.0,   16.3,   0.00,   0.00, 1016.0,   77.3, -999.0
18-06-2022, 00:36:24,    270,    0.0,   16.3,   0.00,   0.00, 1016.0,   77.3, -999.0
18-06-2022, 00:36:33,    270,    0.0,   16.2,   0.00,   0.00, 1016.0,   77.3, -999.0
18-06-2022, 00:36:43,    269,    0.0,   16.2,   0.00,   0.00, 1015.9,   77.2, -999.0
18-06-2022, 00:36:53,    269,    0.0,   16.2,   0.00,   0.00, 1016.0,   77.4, -999.0
18-06-2022, 00:37:03,    269,    0.0,   16.2,   0.00,   0.00, 1016.0,   77.4, -999.0
18-06-2022, 00:37:13,    270,    0.0,   16.1,   0.00,   0.00, 1016.0,   77.4, -999.0
18-06-2022, 00:37:23,    270,    0.0,   16.1,   0.00,   0.00, 1016.0,   77.4, -999.0
18-06-2022, 00:37:33,    269,    0.0,   16.2,   0.00,   0.00, 1016.0,   77.5, -999.0
18-06-2022, 00:37:43,    270,    0.0,   16.1,   0.00,   0.00, 1016.0,   77.5, -999.0
18-06-2022, 00:37:53,    269,    0.0,   16.1,   0.00,   0.00, 1016.0,   77.6, -999.0
18-06-2022, 00:38:03,    269,    0.0,   15.9,   0.00,   0.00, 1016.0,   77.6, -999.0
18-06-2022, 00:38:13,    269,    0.0,   16.1,   0.00,   0.00, 1016.0,   77.8, -999.0
18-06-2022, 00:38:23,    269,    0.0,   16.1,   0.00,   0.00, 1016.0,   77.9, -999.0
18-06-2022, 00:38:33,    269,    0.0,   16.1,   0.00,   0.00, 1016.0,   77.9, -999.0
18-06-2022, 00:38:42,    269,    0.0,   16.2,   0.00,   0.00, 1015.9,   77.9, -999.0
18-06-2022, 00:38:53,    269,    0.0,   16.1,   0.00,   0.00, 1016.0,   78.0, -999.0
18-06-2022, 00:39:03,    269,    0.0,   16.1,   0.00,   0.00, 1016.0,   78.2, -999.0
18-06-2022, 00:39:12,    269,    0.0,   16.1,   0.00,   0.00, 1016.0,   78.1, -999.0
18-06-2022, 00:39:22,    269,    0.0,   16.1,   0.00,   0.00, 1016.0,   78.1, -999.0
18-06-2022, 00:39:33,    269,    0.0,   16.1,   0.00,   0.00, 1016.0,   78.0, -999.0
18-06-2022, 00:39:42,    269,    0.0,   16.1,   0.00,   0.00, 1016.0,   78.1, -999.0
18-06-2022, 00:39:52,    269,    0.0,   16.0,   0.00,   0.00, 1016.0,   78.1, -999.0
18-06-2022, 00:40:02,    269,    0.0,   16.1,   0.00,   0.00, 1016.0,   78.2, -999.0
18-06-2022, 00:40:12,    269,    0.0,   16.1,   0.00,   0.00, 1016.0,   78.2, -999.0
18-06-2022, 00:40:22,    269,    0.0,   16.1,   0.00,   0.00, 1016.0,   78.2, -999.0
18-06-2022, 00:40:32,    269,    0.0,   16.1,   0.00,   0.00, 1016.0,   78.3, -999.0
18-06-2022, 00:40:42,    269,    0.0,   16.1,   0.00,   0.00, 1016.0,   78.3, -999.0
18-06-2022, 00:40:52,    269,    0.0,   16.1,   0.00,   0.00, 1016.0,   78.3, -999.0
18-06-2022, 00:41:02,    269,    0.0,   16.0,   0.00,   0.00, 1016.0,   78.4, -999.0
18-06-2022, 00:41:12,    269,    0.0,   16.1,   0.00,   0.00, 1016.0,   78.4, -999.0
18-06-2022, 00:41:22,    269,    0.0,   16.0,   0.00,   0.00, 1016.0,   78.5, -999.0
18-06-2022, 00:41:32,    269,    0.0,   16.1,   0.00,   0.00, 1016.0,   78.4, -999.0
18-06-2022, 00:41:41,    269,    0.0,   16.1,   0.00,   0.00, 1016.0,   78.5, -999.0
18-06-2022, 00:41:51,    269,    0.0,   16.1,   0.00,   0.00, 1016.0,   78.7, -999.0
18-06-2022, 00:42:02,    269,    0.0,   16.1,   0.00,   0.00, 1016.0,   78.7, -999.0
18-06-2022, 00:42:11,    269,    0.0,   16.0,   0.00,   0.00, 1016.0,   78.6, -999.0
18-06-2022, 00:42:21,    269,    0.0,   16.0,   0.00,   0.00, 1016.0,   78.6, -999.0
18-06-2022, 00:42:31,    269,    0.0,   16.0,   0.00,   0.00, 1016.0,   78.4, -999.0
18-06-2022, 00:42:41,    269,    0.0,   16.0,   0.00,   0.00, 1016.0,   78.5, -999.0
18-06-2022, 00:42:51,    268,    0.0,   16.0,   0.00,   0.00, 1016.0,   78.5, -999.0
18-06-2022, 00:43:01,    270,    0.0,   16.0,   0.00,   0.00, 1016.0,   78.6, -999.0
18-06-2022, 00:43:11,    269,    0.0,   16.0,   0.00,   0.00, 1016.0,   78.6, -999.0
18-06-2022, 00:43:21,    269,    0.0,   16.0,   0.00,   0.00, 1016.0,   78.7, -999.0
18-06-2022, 00:43:31,    269,    0.0,   15.9,   0.00,   0.00, 1016.0,   78.7, -999.0
18-06-2022, 00:43:41,    269,    0.0,   16.0,   0.00,   0.00, 1016.0,   78.6, -999.0
18-06-2022, 00:43:51,    269,    0.0,   15.9,   0.00,   0.00, 1016.0,   78.7, -999.0
18-06-2022, 00:44:01,    269,    0.0,   16.0,   0.00,   0.00, 1016.0,   78.7, -999.0
18-06-2022, 00:44:11,    269,    0.0,   16.1,   0.00,   0.00, 1016.0,   78.7, -999.0
18-06-2022, 00:44:20,    269,    0.0,   16.0,   0.00,   0.00, 1016.0,   78.7, -999.0
18-06-2022, 00:44:31,    269,    0.0,   16.0,   0.00,   0.00, 1016.0,   78.8, -999.0
18-06-2022, 00:44:41,    269,    0.0,   15.9,   0.00,   0.00, 1016.0,   78.9, -999.0
18-06-2022, 00:44:50,    269,    0.0,   15.9,   0.00,   0.00, 1016.0,   78.9, -999.0
18-06-2022, 00:45:00,    269,    0.0,   15.9,   0.00,   0.00, 1016.0,   79.0, -999.0
18-06-2022, 00:45:10,    269,    0.0,   15.8,   0.00,   0.00, 1016.0,   79.0, -999.0
18-06-2022, 00:45:20,    269,    0.0,   15.8,   0.00,   0.00, 1016.0,   78.9, -999.0
18-06-2022, 00:45:30,    269,    0.0,   15.9,   0.00,   0.00, 1016.0,   79.0, -999.0
18-06-2022, 00:45:40,    269,    0.0,   15.9,   0.00,   0.00, 1016.0,   79.0, -999.0
18-06-2022, 00:45:50,    269,    0.0,   15.9,   0.00,   0.00, 1016.0,   79.1, -999.0
18-06-2022, 00:46:00,    269,    0.0,   15.9,   0.00,   0.00, 1016.0,   79.1, -999.0
18-06-2022, 00:46:10,    269,    0.0,   15.9,   0.00,   0.00, 1016.0,   79.1, -999.0
18-06-2022, 00:46:20,    269,    0.0,   15.8,   0.00,   0.00, 1016.0,   79.2, -999.0
18-06-2022, 00:46:30,    269,    0.0,   15.9,   0.00,   0.00, 1016.0,   79.2, -999.0
18-06-2022, 00:46:40,    269,    0.0,   15.9,   0.00,   0.00, 1016.0,   79.3, -999.0